Location: Unspecified
(42.3650°N, 71.1030°W)
Time: 16:59:09
(UTC+00:00)

Tiros 1 - Pass Details

Date: 25 June 2024
Orbit: 624 x 656 km, 48.4° (Epoch: 13 July)

Event Time Altitude Azimuth Distance (km) Brightness Sun altitude
Rises 08:08:44 0° 295° (WNW) 2,914 10.3 -9.5°
Reaches altitude 10° 08:11:04 10° 299° (WNW) 2,009 9.5 -9.2°
Maximum altitude 08:15:39 61° 21° (NNE) 718 7.7 -8.6°
Drops below altitude 10° 08:20:16 10° 102° (ESE) 2,023 10.2 -8.0°
Sets 08:22:38 0° 106° (ESE) 2,936 11.0 -7.6°
